Regional Weather Roundup
Issued by NWS Albany, NY

Home | Current Version | Previous Version | Text Only | Print | Product List | Glossary On
Versions: 1 2 3 4 5 6 7 8 9 10 11 12 13 14 15 16 17 18 19 20 21 22 23 24 25 26 27 28 29 30 31 32 33 34 35 36 37 38 39 40 41 42 43 44 45 46 47 48 49 50
000
ASUS41 KALY 020010
RWRALY

NEW YORK STATE HOURLY WEATHER ROUNDUP
NATIONAL WEATHER SERVICE ALBANY NY
800 PM EDT FRI AUG 01 2014

NOTE: "FAIR" INDICATES FEW OR NO CLOUDS BELOW 12,000 FEET WITH NO
SIGNIFICANT WEATHER AND/OR NO OBSTRUCTIONS TO VISIBILITY.

NYZ032-033-038>043-046>054-057>066-NYZ062>081-020100-
EAST


CITY           SKY/WX    TMP DP  RH WIND       PRES   REMARKS
ALBANY         CLOUDY    75  61  61 S15       30.16R
GLENS FALLS    MOCLDY    73  64  73 CALM      30.14S
POUGHKEEPSIE   CLOUDY    71  68  90 CALM      30.19R
NEWBURGH       MOCLDY    70  64  83 CALM      30.22
MONTGOMERY     CLOUDY    71  65  81 CALM      30.20S
WHITE PLAINS   CLOUDY    72  66  81 SE3       30.20R
ISLIP          CLOUDY    75  63  66 S5        30.18F
NEW YORK CITY  CLOUDY    76  64  66 S12       30.18S
CENTRAL PARK   CLOUDY    75  65  70 VRB7      30.21S
$$

NYZ005>009-017-018-044>046-055-056-020100-
CENTRAL


CITY           SKY/WX    TMP DP  RH WIND       PRES   REMARKS
FULTON         CLOUDY    75  66  73 NE3       30.12S
SYRACUSE       MOCLDY    75  64  68 NE3       30.12R
ROME           CLEAR     74  67  78 NE5       30.13S
ELMIRA         CLEAR     76  62  62 SW3       30.12R
BINGHAMTON     CLOUDY    73  60  63 S9        30.18R
MONTICELLO     CLOUDY    64  64 100 SE3       30.24F
$$

NYZ026>034-041>043-020100-
NORTH


CITY           SKY/WX    TMP DP  RH WIND       PRES   REMARKS
WATERTOWN      PTCLDY    76  62  62 CALM      30.11S
FORT DRUM      NOT AVBL
MASSENA        CLEAR     71  65  81 CALM      30.11R
SARANAC LAKE   PTCLDY    69  59  70 W3        30.17R
PLATTSBURGH    MOCLDY    72  68  87 CALM      30.11R
$$

NYZ001>004-010>016-019>021-020100-
WEST


CITY           SKY/WX    TMP DP  RH WIND       PRES   REMARKS
NIAGARA FALLS  PTCLDY    72  64  76 NE14      30.12R
BUFFALO        MOCLDY    78  58  49 N6        30.11S
DUNKIRK        PTCLDY    75  60  59 CALM      30.12R
JAMESTOWN      PTCLDY    72  63  73 N8        30.16R
WELLSVILLE     CLEAR     74  57  55 S6        30.19R
ROCHESTER      MOCLDY    70  63  78 E5        30.12F
PENN YAN       PTCLDY    74  66  76 CALM      30.13R
$$

             KEY
       WCI = WIND CHILL INDEX
       VSB = VISIBILITY
       HX  = HEAT INDEX
$$



USA.gov is the U.S. government's official web portal to all federal, state and local government web resources and services.